Flag for U.S.A. Weather past 2 weeks in New Orleans, Louisiana, U.S.A.

67 °F

Mostly cloudy.

Feels Like: 67 °F
Forecast: 65 / 74 °F
Wind: 14 mph from East

Location: Lakefront Airport

Current Time: Nov 26, 2015 at 10:32:30 AM

Latest Report: Nov 26, 2015 at 9:53 AM

Visibility: 9 mi

Pressure: 30.36 "Hg

Humidity: 85%

Dew point: 62 °F

Location of New OrleansLocation

Historic Weather in New Orleans — Graph


New Orleans temperature yesterday

Maximum temperature yesterday: 70 °F (at 12:53 PM)
Minimum temperature yesterday: 55 °F (at 3:53 AM)
Average temperature yesterday: 62 °F

Past Weeks' High & Low Weather Summary

High81 °F (Nov 17, 11:53 AM)96% (Nov 12, 2:53 AM)30.36 "Hg (Nov 12, 2:53 AM)
Low49 °F (Nov 22, 5:53 AM)23% (Nov 23, 3:53 PM)29.73 "Hg (Nov 18, 1:53 AM)
Average65 °F66%30.11 "Hg
* Reported Nov 11 8:53 AM — Nov 26 8:53 AM, New Orleans, Weather by CustomWeather, © 2015

Note: Actual official high and low records may vary slightly from our data, if they occured in-between our weather recording intervals... More about our weather records


New Orleans weather history for previous 24 hours

Time TempWeatherWind HumidityBarometerVisibility
8:53 AM
Thu, Nov 26
65 °FOvercast.16 mph87%30.34 "Hg8 mi
7:53 AM63 °FMostly cloudy.17 mph90%30.33 "Hg8 mi
6:53 AM63 °FOvercast.17 mph90%30.31 "Hg9 mi
5:53 AM63 °FPartly cloudy.15 mph90%30.29 "Hg10 mi
4:53 AM63 °FMostly cloudy.18 mph90%30.28 "Hg10 mi
3:53 AM63 °FOvercast.16 mph87%30.27 "Hg10 mi
3:04 AM63 °FMostly cloudy.15 mph90%30.29 "Hg10 mi
2:53 AM63 °FMostly cloudy.14 mph90%30.27 "Hg10 mi
1:53 AM63 °FMostly cloudy.14 mph87%30.27 "Hg10 mi
12:53 AM63 °FPassing clouds.15 mph84%30.27 "Hg10 mi
11:53 PM
Wed, Nov 25
63 °FOvercast.14 mph90%30.29 "Hg10 mi
10:53 PM64 °FOvercast.14 mph94%30.28 "Hg9 mi
9:53 PM65 °FPassing clouds.16 mph91%30.27 "Hg10 mi
8:53 PM64 °FPassing clouds.15 mph90%30.27 "Hg10 mi
7:53 PM63 °FClear.15 mph93%30.26 "Hg10 mi
6:53 PM63 °FClear.17 mph93%30.25 "Hg10 mi
5:53 PM63 °FClear.16 mph93%30.23 "Hg10 mi
4:53 PM63 °FOvercast.16 mph90%30.23 "Hg9 mi
3:53 PM66 °FPassing clouds.13 mph84%30.22 "Hg10 mi
2:53 PM67 °FScattered clouds.16 mph81%30.21 "Hg10 mi
1:53 PM68 °FSunny.16 mph78%30.20 "Hg10 mi
12:53 PM70 °FPassing clouds.21 mph73%30.20 "Hg10 mi
11:53 AM68 °FSunny.18 mph78%30.23 "Hg10 mi
10:53 AM66 °FBroken clouds.13 mph84%30.25 "Hg10 mi
Weather by CustomWeather, © 2015

See weather overviewHow to use our weather pages